Theta_e
336 336 337 336 336 335 335 334 333 334 335 333 330 330 331 332 331 331 332 333 334 335 336 336 336 335 334 333 333 332 332 331 329 330 332 332 332 331 329 327 327 327 326 326 326 327 327 327 328 329 330 330 332 334 333 333 333 333 333 331 330 329
337 337 337 336 335 334 334 333 332 332 331 329 329 331 331 333 332 332 333 333 334 334 335 335 335 335 334 333 333 333 333 333 332 331 331 332 333 332 330 329 328 328 327 326 326 327 327 327 327 328 329 329 331 334 333 333 333 333 333 331 330 329
336 336 335 333 332 331 330 330 331 330 328 327 330 331 331 332 332 332 333 333 334 334 334 334 334 335 335 333 332 333 334 334 333 332 331 331 332 333 332 330 329 329 328 327 326 326 327 327 327 327 327 327 331 335 334 333 333 333 333 331 330 328
332 332 331 331 332 331 328 328 329 328 327 328 330 331 331 332 332 333 333 334 334 333 333 333 334 336 335 334 332 332 334 334 334 333 332 331 332 333 332 331 330 329 329 328 327 326 326 326 327 326 326 326 330 334 333 333 333 333 333 331 329 327
329 329 329 329 331 330 327 327 327 327 328 330 331 331 332 333 333 334 334 334 334 333 333 333 334 335 335 335 334 333 333 334 334 334 333 332 332 332 331 330 330 329 330 329 328 327 325 325 326 326 326 327 331 334 334 333 333 333 332 331 329 326
329 329 329 328 329 328 327 328 327 328 329 331 332 332 333 333 334 334 334 334 333 333 333 333 334 334 335 335 335 333 333 333 333 333 333 332 331 331 331 330 329 329 330 328 328 327 326 324 326 327 328 329 331 332 334 334 333 333 332 331 328 324
328 329 329 328 328 328 328 328 328 329 329 331 331 333 334 334 334 334 333 333 333 333 332 333 333 333 334 334 335 334 333 333 333 332 331 330 330 330 330 329 328 329 329 328 327 327 327 326 327 328 328 329 329 330 332 333 333 333 332 330 327 323
328 328 328 328 328 328 328 328 329 329 329 330 331 333 333 334 334 334 334 333 333 333 332 333 333 333 333 333 334 334 333 333 332 332 331 329 330 330 330 329 330 330 329 328 327 327 328 328 329 328 328 328 328 329 329 332 333 332 331 329 326 324
330 330 329 329 329 329 328 329 329 329 330 330 331 332 333 334 334 334 334 333 334 334 334 333 333 333 333 333 333 333 334 334 333 332 330 329 330 330 330 331 331 331 331 330 327 327 328 329 329 329 329 329 329 329 328 331 333 332 331 329 327 325
335 335 333 333 334 332 332 331 330 330 330 330 331 332 332 333 333 334 334 334 334 334 334 334 334 333 333 333 333 333 334 334 334 333 331 331 331 331 331 332 332 332 332 331 329 328 329 329 329 329 329 329 329 329 329 330 333 332 331 329 328 326
338 339 338 339 339 338 336 334 334 333 332 332 333 334 333 333 334 335 336 335 335 334 335 335 334 335 334 333 333 334 335 335 334 334 333 333 332 332 331 331 331 332 332 332 331 331 330 330 330 329 329 330 329 329 329 330 332 332 330 329 328 326
340 341 341 341 341 340 339 338 337 336 335 336 337 337 336 336 336 337 336 335 335 335 335 335 335 334 334 334 334 335 335 334 334 334 334 334 334 333 332 332 332 332 332 332 331 331 331 330 329 329 329 330 329 328 328 329 331 332 331 330 329 327
341 341 340 340 339 339 339 338 337 337 337 338 339 339 338 338 338 337 335 335 335 335 335 335 334 334 334 334 334 335 334 334 334 334 333 334 333 333 332 332 332 331 332 332 331 330 330 330 328 328 329 329 329 329 329 328 330 331 331 330 329 329
341 341 340 339 338 338 338 337 337 337 338 339 338 338 337 337 337 336 335 335 335 334 334 334 334 334 334 334 334 334 335 334 333 333 333 333 333 333 331 331 331 331 331 330 329 330 330 329 327 328 329 329 329 329 328 328 329 331 332 331 330 330
340 339 339 337 337 337 337 336 337 338 337 337 337 337 336 335 335 335 335 335 335 334 334 334 334 334 334 334 334 333 334 333 333 333 333 333 332 331 331 330 331 331 330 329 329 329 329 327 327 327 328 328 328 328 327 327 329 331 332 331 331 330
339 338 337 336 335 336 337 336 337 337 336 335 335 334 333 334 334 334 334 334 335 334 334 334 334 334 334 334 334 333 333 333 332 332 332 332 332 331 331 331 330 330 330 329 329 329 327 326 326 327 328 328 328 328 327 327 328 330 332 331 331 331
338 337 335 335 336 336 337 335 335 334 334 333 332 332 332 332 333 333 334 334 334 334 334 334 333 334 334 333 333 333 333 333 332 332 332 331 332 332 332 331 331 331 331 329 328 328 327 327 327 327 328 328 328 328 328 328 328 329 330 330 330 331
337 337 336 335 336 335 334 334 333 332 331 331 331 332 332 333 333 333 333 332 333 333 332 332 332 333 333 332 333 332 332 332 332 332 332 332 332 333 333 331 331 332 331 327 327 327 327 328 328 328 328 328 328 328 329 328 328 328 328 329 329 330
337 338 337 335 335 333 332 332 332 331 331 331 332 332 332 331 331 331 331 330 331 330 330 330 331 331 331 332 332 332 331 331 331 331 331 331 332 333 332 332 331 331 330 327 327 327 327 327 328 328 329 329 328 329 329 329 329 328 328 329 329 330
337 337 335 333 332 331 331 331 331 331 330 331 331 331 330 329 329 329 329 329 328 328 328 328 328 329 329 330 331 330 330 330 330 330 331 331 332 332 331 332 331 331 330 328 327 328 328 328 327 328 328 328 327 328 328 329 329 329 328 328 329 329
336 333 331 330 329 328 329 330 331 330 329 329 330 329 329 329 328 327 326 326 326 326 326 326 327 328 328 328 328 329 330 330 330 330 331 331 331 331 331 332 331 331 331 329 328 328 328 328 328 327 327 327 327 326 326 327 328 329 328 328 328 329
332 331 329 327 326 326 327 328 330 330 328 328 329 329 328 328 327 326 324 324 324 323 323 324 325 327 327 326 327 329 329 329 330 330 331 330 331 331 331 331 331 331 330 329 329 328 328 328 327 327 327 327 328 327 326 327 327 328 328 329 328 329
330 330 327 326 324 325 326 326 328 329 329 328 329 327 326 325 324 322 322 321 322 322 322 322 324 326 325 325 327 328 328 329 329 330 329 329 330 331 331 331 330 331 330 328 329 329 329 328 326 326 326 327 330 329 328 328 328 327 328 328 327 327
329 327 326 325 324 324 324 326 328 327 326 326 326 325 324 323 322 321 321 321 320 321 321 322 323 324 323 324 326 327 327 328 329 329 329 329 330 330 331 331 329 330 329 327 328 329 329 328 326 327 327 327 327 329 331 329 328 330 329 329 328 328
328 326 325 324 324 323 323 325 326 325 324 323 323 323 323 322 322 322 321 320 320 320 320 320 322 323 323 324 325 325 326 327 328 329 328 328 329 329 330 330 329 329 329 328 329 329 329 329 327 327 328 328 328 332 333 329 328 331 329 330 330 329
327 325 324 323 323 322 323 324 325 324 322 320 320 321 321 322 321 321 321 320 320 320 319 319 320 321 322 324 323 323 325 326 326 326 327 327 327 328 329 329 329 329 329 330 329 329 328 329 329 328 328 328 329 331 330 327 329 330 327 328 330 329
326 324 323 322 321 322 323 324 324 323 322 320 319 319 320 321 321 321 321 320 320 320 319 319 319 320 322 323 321 322 325 325 324 324 325 325 326 327 328 328 328 328 328 329 329 328 327 328 329 328 328 328 328 329 328 327 329 329 328 327 327 327
325 324 322 321 321 323 323 324 323 322 321 319 316 317 321 321 321 321 320 320 320 319 319 318 319 320 321 322 321 321 324 324 323 323 323 323 324 325 326 326 327 327 328 328 328 328 326 327 328 327 327 327 327 328 327 326 326 326 330 331 327 325
325 323 322 322 323 323 323 323 323 321 320 318 315 318 321 322 320 320 319 319 319 319 318 318 318 319 320 320 320 321 323 323 322 322 322 322 322 322 323 324 324 325 326 327 326 326 326 326 326 326 327 326 327 327 325 325 326 325 327 330 329 324
326 324 323 324 324 323 322 323 322 321 319 317 318 320 321 320 319 318 318 319 319 318 318 317 316 316 317 317 317 317 318 319 320 321 321 321 320 320 321 322 324 324 324 323 323 323 322 322 323 324 325 326 327 325 321 319 321 323 323 323 324 321
327 326 326 325 324 323 322 322 322 321 318 317 319 321 320 319 319 319 320 320 319 317 316 316 316 316 315 315 315 314 312 313 316 318 319 319 318 319 319 321 323 322 320 319 319 319 318 319 319 321 323 326 326 324 321 318 317 319 319 318 320 318
327 327 327 325 324 323 322 322 322 320 317 317 319 319 318 319 320 321 320 319 317 315 314 315 315 316 315 316 316 313 310 310 312 314 315 316 317 318 318 319 320 319 317 316 316 316 316 317 318 319 319 321 322 321 320 319 317 317 316 316 317 315
328 328 325 323 323 322 321 322 321 319 317 317 318 317 317 317 320 321 319 317 316 314 313 313 314 315 315 315 314 310 310 312 312 312 312 313 315 316 317 318 318 317 316 315 316 316 315 315 315 315 315 315 315 314 314 314 314 314 314 313 313 312
329 327 323 322 322 321 321 321 319 317 317 318 318 317 315 316 318 320 318 316 315 314 312 311 312 314 314 314 312 310 310 311 311 311 310 309 310 313 314 315 317 316 315 314 314 314 314 313 313 313 313 313 313 312 312 311 311 310 311 310 310 310
328 326 322 321 321 321 320 320 318 316 318 319 318 317 315 315 318 319 317 314 314 314 312 310 311 312 313 312 310 310 310 310 310 310 308 306 306 307 307 309 312 315 315 314 313 313 313 312 311 311 311 312 311 310 310 311 310 310 310 310 309 309
326 324 322 321 320 321 321 318 317 317 319 320 319 317 316 316 318 319 316 314 314 313 311 309 310 311 311 311 310 310 310 309 310 310 307 306 305 305 305 304 306 309 312 314 313 313 312 311 310 309 310 310 308 308 310 311 311 311 310 310 311 310
324 324 324 323 321 320 320 318 317 318 319 320 319 317 315 315 317 319 317 316 316 313 310 309 309 310 310 310 309 310 310 310 311 310 309 307 306 304 305 305 304 304 307 311 312 312 312 311 310 307 307 308 306 307 310 311 311 310 309 308 309 310
Wind_Speed
22 22 22 21 21 20 19 18 18 17 16 15 15 14 13 12 12 12 11 10 9 9 9 9 8 7 7 8 8 8 7 7 7 7 7 8 8 7 7 8 8 7 7 6 6 6 8 8 9 7 7 6 6 7 11 14 14 12 9 8 7 5
22 22 22 21 20 20 19 18 17 16 16 15 14 13 12 12 11 11 10 9 8 8 8 8 8 7 7 8 8 8 8 7 8 8 8 8 7 7 7 7 7 7 7 7 5 5 6 7 8 7 7 6 5 7 9 13 12 11 9 7 6 5
22 21 21 20 19 19 19 18 17 16 15 14 13 12 12 11 11 10 9 8 7 7 6 6 6 6 6 7 8 8 8 8 8 8 8 8 7 6 6 7 7 7 6 6 5 4 4 5 6 6 6 6 5 6 8 11 11 10 9 7 6 4
21 21 20 19 19 18 18 18 16 16 14 14 13 12 11 10 10 9 8 7 7 7 6 6 6 6 6 7 7 9 9 8 8 8 8 8 7 6 6 7 8 7 6 5 5 4 3 4 6 6 6 6 5 5 7 10 11 10 9 7 5 4
20 20 19 18 18 17 17 17 16 15 13 13 12 11 11 10 9 9 8 7 7 7 7 7 7 8 7 7 8 9 9 9 9 8 9 8 7 8 7 8 8 8 7 5 5 4 4 5 6 5 5 6 5 5 6 8 10 10 9 7 5 4
20 20 19 18 18 17 17 16 15 14 14 13 11 10 10 10 10 9 9 8 8 8 7 7 7 8 8 8 9 10 10 10 10 9 9 8 8 9 9 8 8 7 6 6 5 5 5 5 6 5 4 5 4 4 5 6 8 9 9 8 6 5
21 20 20 18 17 17 16 15 14 14 13 13 11 11 11 10 10 9 9 9 8 8 8 8 8 8 8 9 10 11 11 11 10 9 9 9 9 9 8 7 7 6 7 7 6 6 6 5 5 4 3 3 3 2 2 4 7 8 9 8 7 5
21 21 20 18 17 17 15 14 14 14 13 13 12 11 11 11 10 9 9 8 7 7 8 8 8 8 8 9 11 12 12 12 10 10 9 9 9 8 8 7 5 5 6 7 7 7 6 5 3 3 3 2 2 2 2 4 6 7 9 8 7 6
21 20 18 17 16 16 15 14 14 14 14 13 12 11 11 11 10 9 9 9 8 8 9 9 8 8 8 9 11 12 12 12 11 10 10 10 8 7 6 6 4 4 5 6 6 7 6 5 4 3 3 2 3 2 3 5 6 7 9 8 7 6
21 19 18 17 16 15 15 14 14 14 13 13 12 12 11 10 10 10 10 11 11 10 9 9 9 8 9 10 11 12 12 12 12 10 10 8 7 6 5 4 4 4 4 4 5 5 5 5 5 5 4 3 3 2 3 6 7 8 10 9 8 8
20 18 17 16 15 15 14 14 14 13 13 13 12 11 11 11 11 11 11 11 12 10 9 9 8 8 9 10 11 12 12 11 10 9 8 6 5 5 5 4 4 5 5 4 4 4 5 6 6 6 6 5 5 4 4 7 8 9 11 10 9 9
20 18 17 15 14 14 14 13 12 12 12 12 11 10 11 11 10 10 9 10 10 9 9 9 8 8 9 11 11 12 11 10 8 7 7 6 6 7 7 7 7 7 7 6 6 5 5 6 6 7 8 7 7 7 6 6 9 11 12 12 10 9
19 17 16 15 14 14 13 12 11 11 11 11 11 10 10 10 9 8 8 8 8 8 8 8 8 9 9 10 11 11 11 9 8 7 7 7 8 9 9 9 9 9 9 8 8 7 6 7 7 7 9 9 8 8 7 6 9 12 13 13 11 10
18 17 16 15 14 14 13 12 11 11 11 11 10 10 9 9 8 7 7 8 8 7 7 7 8 9 9 9 10 12 11 11 9 8 8 9 10 10 10 10 10 11 10 9 9 8 7 7 6 6 8 8 7 7 7 7 8 12 14 14 12 11
19 17 17 15 14 14 13 12 11 11 10 10 9 8 7 7 7 7 6 6 7 7 7 8 8 9 9 8 9 11 12 12 11 10 10 10 10 11 11 10 11 11 10 9 9 8 6 5 4 5 6 6 5 4 5 6 9 12 14 14 13 12
20 19 18 16 14 14 13 12 11 10 8 7 6 5 5 5 6 6 5 5 6 6 6 7 7 8 9 8 9 10 10 11 11 11 12 12 12 11 11 10 9 9 8 7 8 7 5 4 5 7 7 6 5 4 4 5 8 13 15 14 14 14
22 20 19 17 15 14 13 11 9 8 6 4 4 4 5 5 4 4 4 5 5 5 5 5 5 7 8 8 10 10 10 9 8 9 11 13 14 13 12 10 7 7 6 6 6 7 6 6 7 8 9 9 8 7 6 5 7 11 14 14 14 15
22 21 19 17 15 14 12 10 8 7 5 6 6 7 7 6 6 4 3 4 3 3 2 2 3 6 6 7 9 9 9 8 7 7 10 13 14 14 12 11 8 7 6 6 8 9 9 9 8 9 9 9 9 9 8 8 7 7 10 13 14 15
22 22 19 16 16 14 12 11 10 8 8 9 10 10 9 9 9 7 5 5 4 3 3 3 1 2 3 4 5 6 6 7 7 8 10 13 15 14 13 12 11 9 7 7 9 9 10 10 9 9 10 10 9 8 8 9 8 7 5 6 9 11
24 22 20 19 18 17 14 13 12 11 12 13 13 12 10 10 11 10 8 6 5 6 6 5 5 4 2 1 1 3 4 5 6 7 9 12 13 13 13 12 12 11 10 8 9 9 10 10 9 8 7 7 7 6 6 5 5 6 6 6 6 6
25 23 23 22 21 19 18 16 15 15 15 15 14 13 11 11 11 10 8 6 5 6 6 6 5 6 6 5 4 4 4 4 5 6 8 9 9 10 9 10 11 12 13 11 10 10 10 9 8 5 3 4 4 5 5 5 5 6 8 7 7 6
27 26 24 22 22 20 19 18 18 18 17 16 14 12 12 12 11 10 9 6 5 4 5 5 6 7 7 6 5 5 4 4 4 6 8 8 9 9 9 10 10 11 12 12 12 12 11 9 6 5 4 3 1 3 5 6 7 7 8 8 7 6
29 27 25 23 21 20 18 18 18 18 18 17 15 13 12 12 11 10 9 7 5 4 5 5 5 8 8 7 7 6 5 4 3 4 7 8 9 10 10 11 10 11 11 10 9 10 9 7 7 6 2 2 1 1 2 4 6 7 7 8 6 4
29 27 25 23 21 20 19 17 18 19 19 18 17 15 14 12 10 9 8 7 7 7 6 6 5 7 8 8 8 7 6 6 5 4 4 6 7 9 11 11 11 11 9 7 7 8 7 4 8 8 3 1 1 1 2 2 4 6 6 6 6 5
30 28 25 23 22 21 21 20 20 20 18 18 18 17 15 13 11 9 8 7 8 9 7 7 7 7 8 9 9 7 7 7 7 6 5 4 4 6 9 11 11 10 9 8 7 8 7 4 8 9 5 3 1 1 2 1 2 4 5 6 6 6
31 28 26 24 23 23 23 22 22 20 19 18 17 15 15 14 13 11 10 9 9 8 6 7 8 7 8 9 9 7 8 8 9 10 8 6 5 5 6 7 8 9 8 8 8 8 8 6 8 8 5 4 3 2 2 1 2 2 3 4 5 5
31 28 26 25 24 24 24 24 23 22 20 18 16 15 14 14 13 13 12 10 9 7 6 6 7 7 8 9 9 8 9 10 10 11 10 9 8 6 6 5 5 6 5 6 7 8 9 9 10 7 5 5 5 4 2 2 2 2 2 2 3 5
31 29 27 25 24 24 26 25 24 22 19 17 15 15 15 13 12 11 11 10 9 8 7 7 8 8 9 9 9 9 10 10 10 11 10 9 9 9 8 8 6 4 3 3 4 5 8 9 8 7 7 6 5 5 4 3 2 1 3 2 2 4
30 29 28 25 23 24 26 26 24 21 19 16 15 16 15 12 11 10 10 10 9 9 9 9 9 11 11 11 10 10 10 10 9 8 7 6 7 8 8 8 7 6 6 6 5 3 5 5 4 4 7 8 5 6 6 5 4 3 4 3 1 2
29 28 26 23 23 24 27 26 24 22 19 17 17 17 15 12 12 11 11 11 9 9 10 10 10 11 11 11 10 10 9 9 9 7 6 5 6 7 7 8 9 9 10 10 10 8 6 5 3 3 6 7 7 7 6 6 6 6 5 5 3 0
22 22 21 21 23 26 28 27 25 23 21 21 20 18 16 15 14 12 12 11 9 9 10 11 11 10 9 9 8 7 7 8 9 8 7 6 6 7 7 8 9 10 11 11 11 10 10 9 7 6 6 6 6 6 4 4 5 5 4 4 4 1
16 18 18 21 25 28 29 28 25 24 22 23 22 19 19 17 15 14 13 12 10 10 11 12 12 11 10 8 6 6 8 10 10 9 8 7 7 7 8 9 9 10 11 11 11 10 10 11 11 10 9 7 6 5 5 5 4 3 4 5 5 3
18 20 21 23 27 27 28 26 25 24 23 23 22 19 19 18 16 14 13 12 12 11 12 12 13 13 11 9 7 7 9 11 11 10 9 8 8 8 8 9 9 10 10 10 9 9 9 10 10 11 11 10 9 9 9 8 5 4 4 4 5 4
24 25 27 27 27 26 25 25 24 23 23 23 22 19 19 18 16 15 13 13 12 12 12 13 14 14 12 10 9 9 10 10 11 11 11 10 9 8 8 8 9 9 10 9 9 9 9 9 9 9 9 9 9 9 9 8 6 6 6 5 5 4
30 30 29 26 26 26 24 24 24 23 23 23 22 19 18 17 16 15 14 13 13 12 12 12 13 14 13 12 10 10 10 10 11 11 11 11 10 9 8 9 9 9 9 9 8 9 9 9 9 9 9 9 9 9 9 8 8 9 9 9 10 8
28 25 22 23 26 28 27 25 24 24 24 24 23 20 19 17 17 15 14 14 13 12 12 12 13 13 13 12 11 11 10 10 10 11 11 10 10 10 9 9 9 9 10 8 8 9 9 9 9 9 8 8 9 10 10 9 9 10 11 11 12 12
27 25 26 27 26 25 24 23 24 26 26 27 25 22 19 17 17 17 15 15 13 13 13 13 13 13 12 12 11 11 11 10 10 10 10 9 9 9 9 9 9 9 9 9 8 9 8 8 8 8 8 8 9 11 11 10 10 10 10 11 11 12
Wind_Direction
162 161 163 162 162 163 163 165 164 164 163 163 162 160 160 159 160 160 163 164 165 165 161 160 158 157 156 154 154 156 158 156 154 152 151 151 148 144 141 142 141 139 135 128 119 107 109 115 118 124 121 102 71 101 153 169 171 174 171 168 162 155
164 164 163 161 161 162 164 168 167 167 167 166 164 163 164 163 165 167 170 172 174 176 170 168 168 170 172 166 162 163 164 163 163 162 162 161 157 154 150 151 148 142 137 133 131 122 115 115 115 119 118 109 80 91 144 170 176 179 177 172 168 164
165 164 163 160 162 165 167 170 169 169 169 169 169 168 170 171 174 177 179 178 178 178 177 181 180 181 183 178 171 169 172 173 173 170 169 170 170 166 162 163 161 153 146 138 136 131 124 121 117 118 119 113 95 89 133 170 179 181 181 178 178 174
167 166 166 164 166 168 169 172 173 173 173 174 174 174 177 181 183 185 185 182 178 175 181 187 185 188 193 191 184 178 179 181 183 181 178 177 177 177 175 177 176 168 161 153 148 147 143 137 125 121 125 119 113 97 119 160 174 181 185 183 187 190
169 169 170 171 172 173 174 177 178 178 178 180 181 179 183 190 191 192 189 185 182 179 186 190 191 196 201 207 202 193 189 188 190 189 187 184 181 182 184 184 184 183 179 175 169 169 169 157 137 126 129 124 125 117 120 150 169 183 191 189 194 201
174 174 176 180 179 179 181 183 185 184 187 189 188 187 191 197 199 201 196 192 189 188 195 196 201 207 210 216 214 208 202 198 198 194 191 188 186 186 187 188 190 192 196 196 195 190 176 163 148 135 133 132 133 129 132 153 170 186 196 195 199 203
178 180 183 186 185 186 189 190 191 193 197 199 197 197 200 203 207 211 209 206 200 200 207 204 205 213 219 223 222 218 212 208 204 198 196 195 193 189 187 192 196 202 209 211 210 200 183 173 164 153 152 155 160 157 158 168 175 188 196 198 201 201
183 185 187 190 191 194 196 196 197 201 205 208 206 205 207 211 215 220 225 225 215 213 217 214 211 216 226 228 227 224 217 214 209 204 205 204 201 191 187 191 197 211 218 218 214 203 193 191 194 191 191 194 197 209 216 193 185 189 193 197 202 200
187 188 189 192 196 200 201 201 204 208 211 213 214 212 213 217 222 228 236 240 234 227 227 224 217 220 229 227 228 227 220 217 214 210 209 212 210 200 196 198 204 218 221 219 209 203 207 212 219 216 216 213 191 216 239 207 195 192 192 198 207 205
187 187 189 192 199 202 204 206 209 215 216 218 220 218 221 226 229 233 239 246 245 239 234 227 219 223 228 225 229 229 222 219 219 216 214 217 216 212 216 222 238 245 237 223 206 211 230 237 234 221 219 218 212 256 247 206 199 196 194 201 213 210
186 184 187 192 198 201 205 209 213 218 219 224 228 226 229 232 234 236 240 245 244 237 229 223 219 224 231 231 231 228 225 223 222 219 218 222 224 224 228 242 261 266 262 251 236 237 254 261 246 227 224 226 231 253 236 202 206 205 200 206 216 214
184 183 186 192 198 201 205 207 210 215 220 226 231 233 235 237 239 240 240 235 230 226 223 219 217 222 234 239 233 229 229 229 230 226 223 228 233 235 238 250 260 263 267 263 252 246 260 271 256 234 232 235 239 244 232 205 212 213 207 209 214 217
180 183 186 191 196 199 200 200 204 211 220 228 233 239 241 244 246 243 234 220 213 219 222 218 216 219 231 238 232 230 231 233 238 234 229 230 234 236 242 252 253 254 261 259 250 245 258 269 260 243 239 241 242 239 230 213 216 219 215 213 213 217
176 181 185 191 193 194 194 196 203 213 223 227 231 236 241 246 243 233 223 208 202 215 225 225 223 225 232 236 233 231 229 232 238 241 237 233 235 237 243 251 245 243 248 248 245 243 254 269 265 243 234 238 241 240 239 231 224 224 223 219 217 220
173 179 184 188 190 192 193 195 203 213 219 221 224 228 232 235 227 221 218 204 200 213 229 236 237 238 237 240 240 236 233 233 235 240 240 238 240 239 242 247 240 235 240 241 241 243 251 258 239 212 207 215 224 226 231 233 227 225 227 226 225 227
173 178 181 183 188 193 194 195 201 207 211 213 214 208 202 205 207 211 211 207 209 216 232 243 249 247 242 248 253 250 246 241 238 236 238 243 245 242 237 234 231 228 232 240 239 234 227 208 195 182 174 172 171 164 174 213 226 225 227 230 232 235
175 179 179 180 188 192 192 192 191 190 195 191 173 156 160 164 166 183 190 195 213 223 239 250 254 256 253 255 258 257 255 248 241 233 234 241 243 240 232 219 218 216 217 231 223 202 181 174 173 165 161 159 153 150 153 175 211 222 224 225 229 234
178 182 182 180 183 183 185 184 176 171 163 147 141 137 138 135 132 143 150 156 189 216 235 233 241 259 260 255 252 250 249 246 239 230 230 235 236 237 230 216 208 204 204 209 201 185 172 165 159 152 150 149 151 156 155 155 171 198 216 221 225 230
181 186 184 178 172 173 177 175 168 157 143 141 142 140 136 130 127 127 123 123 128 117 96 95 112 266 260 256 251 240 242 239 229 231 236 235 233 232 229 220 209 203 199 192 189 184 175 168 158 148 143 140 142 150 150 147 148 146 151 192 216 225
185 186 177 167 163 167 171 171 167 156 148 146 146 145 141 133 128 125 126 128 122 113 100 88 82 77 97 116 184 206 223 221 216 227 235 233 232 230 227 224 216 211 208 191 181 180 178 172 159 149 144 143 145 149 153 152 156 160 151 146 161 193
181 178 168 162 163 167 171 172 168 160 156 153 153 155 148 143 138 132 130 130 123 118 113 107 100 96 99 99 116 146 168 188 204 220 226 225 224 223 218 216 213 212 215 212 197 186 186 175 157 164 173 153 156 163 176 191 196 197 189 175 161 167
170 168 166 166 167 170 173 174 170 165 162 161 164 163 153 149 146 140 136 132 127 128 124 118 118 118 110 98 111 130 143 163 191 203 207 208 210 209 203 200 201 200 203 210 206 194 191 176 167 209 198 140 130 158 170 176 181 190 188 187 182 177
165 166 167 169 170 172 173 173 171 165 162 162 163 159 150 146 145 141 135 129 128 140 140 126 123 126 114 100 105 113 119 132 151 168 182 192 201 208 206 202 201 201 196 194 193 188 189 173 176 212 189 133 209 175 177 169 164 179 187 193 190 183
166 168 168 169 172 172 170 170 165 158 154 152 152 152 150 148 153 150 137 127 122 125 130 128 135 134 118 110 110 108 105 106 106 119 149 174 192 208 216 214 209 212 208 190 178 181 194 164 166 189 175 129 181 117 198 207 145 155 174 188 183 183
169 169 169 171 174 173 172 169 160 151 147 145 146 150 150 150 156 158 150 141 126 120 117 114 129 141 129 126 125 114 106 101 100 105 114 136 165 192 210 218 217 221 219 204 194 186 190 172 165 183 182 146 91 96 218 228 123 136 147 153 157 175
172 171 170 174 177 176 176 173 165 158 154 151 151 155 155 152 151 150 148 148 138 127 118 109 117 133 139 138 134 126 122 117 110 110 114 121 132 155 185 205 211 220 226 221 218 193 177 189 189 186 177 137 99 109 180 142 121 118 120 132 142 158
173 171 171 174 178 179 177 175 173 171 168 167 165 161 158 154 150 146 145 148 147 137 128 117 115 128 147 146 137 133 135 131 121 117 116 114 111 114 133 148 167 195 217 219 218 196 176 195 203 187 162 126 91 85 108 140 151 126 127 122 105 125
174 171 172 175 179 183 179 176 175 175 175 180 176 162 156 154 153 153 151 153 153 143 129 121 118 125 143 146 137 135 140 138 129 124 120 110 103 102 109 118 129 148 165 174 202 202 188 198 210 201 182 155 108 88 101 127 155 131 136 124 41 71
173 171 174 178 181 184 182 179 178 177 175 177 173 161 157 158 159 160 157 153 151 145 135 128 124 125 130 133 130 132 136 136 131 128 124 113 106 104 105 111 113 113 117 117 115 135 163 179 198 203 195 183 147 108 102 106 109 97 96 97 27 358
174 172 175 181 184 185 185 184 182 180 174 169 166 162 160 161 161 160 153 149 146 143 142 140 136 131 129 127 125 127 131 135 137 135 131 120 109 105 102 105 107 104 102 102 103 105 108 112 119 145 170 175 154 130 111 89 82 82 80 83 102 78
168 171 178 185 189 189 188 189 188 183 175 170 168 167 165 163 161 162 157 154 153 148 148 149 148 144 140 135 129 125 130 136 140 141 137 127 113 105 102 106 110 107 102 98 102 104 97 89 90 104 131 156 154 140 124 97 79 73 77 89 102 100
147 168 185 191 192 192 191 191 189 185 178 173 172 171 169 168 169 170 167 164 163 158 154 155 157 157 153 153 149 135 128 125 125 128 131 126 118 113 110 112 115 114 109 105 106 105 97 90 87 92 103 121 128 117 104 106 105 94 103 121 125 113
156 173 188 193 192 192 191 190 188 186 182 176 175 175 173 173 175 178 179 177 176 174 168 165 165 165 161 164 166 148 133 122 114 112 115 116 116 119 123 122 120 119 116 115 115 111 103 96 92 94 99 105 106 99 93 91 93 96 104 121 121 113
172 180 187 189 189 190 188 188 188 187 185 181 178 178 177 176 179 186 192 191 189 189 186 179 174 172 170 171 170 158 143 130 120 113 110 111 112 118 128 131 129 125 119 119 120 116 110 103 99 98 103 104 97 89 84 77 72 74 78 80 77 83
181 183 185 184 183 187 189 190 190 188 189 187 183 181 183 182 183 191 200 201 200 202 203 194 182 177 176 176 174 167 157 140 130 124 115 113 114 115 121 126 132 132 125 123 120 115 112 107 103 100 101 100 95 88 82 78 77 72 70 69 60 55
182 177 180 186 186 190 195 194 192 190 192 192 187 184 186 189 190 196 205 207 206 210 211 203 191 184 181 182 179 175 170 156 144 137 128 123 122 122 123 122 127 131 131 135 129 119 117 111 103 101 101 99 95 95 95 93 88 78 70 66 60 54
179 180 189 197 194 190 192 191 190 191 194 195 193 187 185 193 200 203 209 212 212 215 213 208 200 191 185 186 185 182 180 173 163 152 142 137 135 134 132 127 127 128 133 142 140 131 129 120 109 104 103 104 102 101 104 103 95 84 73 67 65 62